Location: Joplin, MO
(37.0842°N, 94.5133°W)
Time: 17:26:51
(UTC+02:00)

Courier 1B Rocket - All Passes

Search period start: 31 March 2023 00:00
Search period end: 10 April 2023 00:00
Orbit: 920 x 1202 km, 28.2° (Epoch: 30 March)

Date Brightness Start Highest point End Pass type
(mag) Time Alt. Az. Time Alt. Az. Time Alt. Az.
31 Mar - 01:41:53 10° SW 01:48:12 29° SSE 01:54:14 10° ESE daylight
31 Mar - 03:34:30 10° WSW 03:41:15 41° S 03:47:35 10° ESE visible
31 Mar - 05:28:02 10° WSW 05:34:14 34° SSW 05:40:05 10° SE visible
31 Mar - 07:22:44 10° WSW 07:26:52 17° SSW 07:30:51 10° SSE night (unlit)
01 Apr - 00:41:15 10° SSW 00:47:10 24° SSE 00:52:51 10° ESE daylight
01 Apr - 02:33:20 10° WSW 02:40:11 39° S 02:46:37 10° ESE daylight
01 Apr - 04:26:39 10° WSW 04:33:16 39° S 04:39:27 10° ESE visible
01 Apr - 06:20:48 10° WSW 06:26:03 23° SSW 06:31:03 10° SSE visible
01 Apr - 23:41:01 10° SSW 23:46:07 19° SSE 23:51:07 10° ESE daylight
02 Apr - 01:32:17 10° SW 01:39:05 35° SSE 01:45:34 10° ESE daylight
02 Apr - 03:25:19 10° WSW 03:32:13 42° S 03:38:41 10° ESE visible
02 Apr - 05:19:09 10° WSW 05:25:10 30° SSW 05:30:49 10° SE visible
02 Apr - 07:15:13 10° SW 07:17:41 12° SSW 07:20:05 10° S night (unlit)
02 Apr - 22:41:29 10° S 22:45:07 14° SSE 22:48:43 10° ESE daylight
03 Apr - 00:31:24 10° SW 00:37:59 31° SSE 00:44:20 10° ESE daylight
03 Apr - 02:24:03 10° WSW 02:31:07 42° S 02:37:47 10° ESE daylight
03 Apr - 04:17:39 10° WSW 04:24:12 35° SSW 04:30:21 10° SE visible
03 Apr - 06:12:25 10° WSW 06:16:53 18° SSW 06:21:10 10° SSE visible
03 Apr - 23:30:47 10° SSW 23:36:54 25° SSE 23:42:53 10° ESE daylight
04 Apr - 01:22:52 10° WSW 01:29:59 40° S 01:36:46 10° ESE daylight
04 Apr - 03:16:13 10° WSW 03:23:09 40° S 03:29:40 10° ESE visible
04 Apr - 05:10:26 10° WSW 05:16:02 24° SSW 05:21:20 10° SSE visible
04 Apr - 22:30:34 10° SSW 22:35:50 20° SSE 22:41:05 10° ESE daylight
05 Apr - 00:21:50 10° SW 00:28:50 37° SSE 00:35:36 10° ESE daylight
05 Apr - 02:14:52 10° WSW 02:22:02 43° S 02:28:50 10° ESE daylight
05 Apr - 04:08:44 10° WSW 04:15:05 31° SSW 04:21:04 10° SE visible
05 Apr - 06:04:43 10° SW 06:07:40 13° SSW 06:10:32 10° S visible
05 Apr - 21:31:04 10° S 21:34:50 14° SSE 21:38:37 10° ESE daylight
05 Apr - 23:21:00 10° SW 23:27:41 31° SSE 23:34:17 10° ESE daylight
06 Apr - 01:13:37 10° WSW 01:20:53 43° S 01:27:51 10° ESE daylight
06 Apr - 03:07:12 10° WSW 03:14:03 37° SSW 03:20:32 10° SE visible
06 Apr - 05:02:00 10° WSW 05:06:49 19° SSW 05:11:27 10° SSE visible
06 Apr - 22:20:26 10° SSW 22:26:35 26° SSE 22:32:45 10° ESE daylight
07 Apr - 00:12:28 10° WSW 00:19:41 41° S 00:26:45 10° ESE daylight
07 Apr - 02:05:47 10° WSW 02:12:56 41° S 02:19:47 10° ESE daylight
07 Apr - 04:00:00 10° WSW 04:05:54 25° SSW 04:11:33 10° SSE visible
07 Apr - 21:20:17 10° SSW 21:25:32 20° SSE 21:30:51 10° ESE daylight
07 Apr - 23:11:29 10° SW 23:18:30 37° SSE 23:25:30 10° ESE daylight
08 Apr - 01:04:27 10° WSW 01:11:46 44° S 01:18:51 10° ESE daylight
08 Apr - 02:58:18 10° WSW 03:04:54 32° SSW 03:11:12 10° SE visible
08 Apr - 04:54:11 10° WSW 04:57:34 14° SSW 05:00:53 10° S visible
08 Apr - 20:20:53 10° S 20:24:34 14° SSE 20:28:18 10° ESE daylight
08 Apr - 22:10:43 10° SW 22:17:22 32° SSE 22:24:04 10° ESE daylight
09 Apr - 00:03:15 10° WSW 00:10:33 44° S 00:17:46 10° ESE daylight
09 Apr - 01:56:47 10° WSW 02:03:48 37° SSW 02:10:35 10° SE daylight
09 Apr - 03:51:31 10° WSW 03:56:40 20° SSW 04:01:38 10° SSE visible
09 Apr - 21:10:14 10° SSW 21:16:17 26° SSE 21:22:27 10° ESE daylight
09 Apr - 23:02:11 10° WSW 23:09:21 42° S 23:16:34 10° ESE daylight
